This is the latest recevied weather packets stored in our database for station/object K7TUS-6. If no packets are shown the sender has not sent any weather packets the latest 10 day(s).
| Time | Temp. | Humidity | Pressure | Rain* | Wind** | Luminosity | Snow |
|---|---|---|---|---|---|---|---|
| 1777512006 | 9.44° C | 1% | 982.1 hPa | - | - | - | - |
| 1777511705 | 9.44° C | 1% | 982.1 hPa | - | - | - | - |
| 1777511405 | 10° C | 1% | 982 hPa | - | - | - | - |
| 1777511110 | 10° C | 1% | 982.4 hPa | - | - | - | - |
| 1777510810 | 10° C | 1% | 982.3 hPa | - | - | - | - |
| 1777510509 | 10° C | 1% | 982.3 hPa | - | - | - | - |
| 1777509908 | 10° C | 1% | 982.1 hPa | - | - | - | - |
| 1777509307 | 10.56° C | 1% | 982.2 hPa | - | - | - | - |
| 1777507804 | 11.11° C | 1% | 982.6 hPa | - | - | - | - |
| 1777507209 | 11.11° C | 1% | 983.7 hPa | - | - | - | - |
| 1777501508 | 16.67° C | 1% | 984.6 hPa | - | - | - | - |
| 1777500306 | 17.22° C | 1% | 985 hPa | - | - | - | - |
| 1777497307 | 17.22° C | 1% | 984.8 hPa | - | - | - | - |
| 1777495810 | 15.56° C | 1% | 986.1 hPa | - | - | - | - |
| 1777493706 | 18.89° C | 1% | 985.9 hPa | - | - | - | - |
| 1777490405 | 21.11° C | 1% | 986.5 hPa | - | - | - | - |
| 1777488907 | 21.11° C | 1% | 986.6 hPa | - | - | - | - |
| 1777487705 | 18.89° C | 1% | 986.2 hPa | - | - | - | - |
| 1777487110 | 18.89° C | 1% | 986.7 hPa | - | - | - | - |
| 1777484705 | 17.78° C | 1% | 986 hPa | - | - | - | - |
| 1777481706 | 17.78° C | 1% | 985.3 hPa | - | - | - | - |
| 1777480509 | 17.22° C | 1% | 985.8 hPa | - | - | - | - |
| 1777479908 | 16.11° C | 1% | 986.4 hPa | - | - | - | - |
| 1777477807 | 12.78° C | 1% | 984.5 hPa | - | - | - | - |
| 1777475709 | 10° C | 1% | 985.1 hPa | - | - | - | - |
* Rain since midnight (hover to see other rain measurements)
** Current wind speed in m/s (hover to see current wind gust speed)